Wind_Speed
59 58 57 57 57 57 56 55 54 54 55 56 56 55 55 55 55 56 57 57 59 61 62 62 63 63 64 64 64 63 64 64 64 63 63 63 63 62 62 63 63 64 64 63 63 62 62 61 61 60 58 56 56 56 56 56 56 56 56 56 55 56 55 56 58 59 61 63 66 68 70 71 72 72 73 74 75 76 77 77 76 76 75 74 73 71 67
61 60 60 60 59 59 57 56 56 56 57 58 57 56 57 57 57 57 58 58 61 63 64 64 65 66 66 66 66 65 65 66 66 66 65 65 64 64 64 64 64 65 64 64 64 64 63 63 63 61 59 58 57 56 56 56 56 56 56 56 56 56 56 57 59 61 63 65 67 70 72 73 73 74 75 75 76 77 78 78 77 77 76 75 73 70 66
62 62 63 62 61 60 59 58 58 58 59 59 58 59 59 59 58 58 59 59 62 64 64 65 66 67 67 67 67 67 67 67 68 68 67 67 66 66 66 66 66 66 66 65 65 65 65 65 64 62 60 59 58 57 57 57 57 57 57 56 56 56 57 58 60 62 65 67 69 72 73 74 75 75 76 77 77 78 78 79 78 77 76 75 72 69 64
64 64 65 64 63 61 60 59 60 61 61 60 60 61 61 60 59 60 61 62 64 65 65 65 67 67 67 67 67 68 68 69 69 69 69 68 68 67 67 67 67 67 67 67 66 66 66 66 64 63 61 60 59 58 58 58 58 58 57 56 57 57 59 60 62 64 67 69 71 74 75 76 77 78 78 78 79 79 79 79 79 77 76 74 72 68 61
66 66 66 66 65 62 62 63 64 63 63 63 64 64 63 62 62 62 63 65 66 66 67 67 68 68 68 68 69 69 70 70 70 70 70 70 69 69 69 69 69 69 68 68 68 68 67 66 65 64 62 61 60 59 59 59 59 58 57 57 58 59 61 62 64 67 69 72 74 76 77 79 79 80 80 80 80 80 80 80 79 78 76 74 70 65 59
68 67 66 66 65 63 64 66 66 66 66 66 67 65 64 64 65 66 67 67 68 68 68 69 69 70 71 71 71 71 71 71 71 71 71 71 71 71 71 71 71 71 70 70 69 69 67 66 66 65 63 62 61 61 60 60 60 58 57 58 60 62 63 65 67 69 72 74 76 78 80 81 82 82 82 82 81 81 80 80 79 78 75 72 68 63 56
69 68 68 67 64 64 67 68 68 68 69 70 69 67 67 68 69 69 70 69 70 70 70 70 71 72 73 73 73 73 73 73 73 73 73 73 73 73 73 73 73 72 72 71 70 69 68 67 67 66 64 63 62 62 62 62 60 59 59 60 62 64 65 67 69 72 75 78 79 80 82 83 83 84 84 83 82 81 81 80 79 77 74 70 65 60 53
70 69 69 68 66 66 69 69 69 70 71 71 70 69 70 71 72 72 72 72 72 72 72 73 73 74 74 75 74 74 74 74 74 75 75 75 75 75 75 75 74 73 72 71 70 70 69 69 68 66 64 64 63 63 63 63 62 61 62 63 65 66 68 70 73 76 79 81 82 83 83 84 85 85 85 84 84 83 81 80 78 76 72 66 62 57 50
72 71 71 70 68 68 69 70 70 71 72 72 73 72 71 74 75 75 75 75 75 75 76 76 75 75 76 76 75 75 75 75 75 75 75 76 76 76 76 76 75 74 73 72 71 70 70 69 68 67 65 64 64 64 64 64 64 65 65 66 67 68 71 73 76 79 81 83 84 85 85 86 86 86 86 85 85 83 82 79 77 73 68 63 58 53 47
74 74 73 71 70 68 69 70 71 71 72 75 75 74 73 76 78 78 77 78 78 79 79 78 78 77 77 77 77 77 77 77 77 77 77 77 77 77 77 77 76 75 73 72 71 71 71 70 69 67 65 65 65 65 65 65 66 67 68 69 70 72 74 76 78 81 83 84 85 86 87 88 88 88 87 87 85 83 81 78 74 70 64 59 55 49 45
76 75 74 72 70 69 69 70 72 73 75 77 77 76 75 78 80 79 79 80 81 82 82 81 80 79 79 79 79 79 79 79 79 79 79 79 79 79 79 78 77 75 73 73 72 72 72 71 69 67 65 65 65 65 66 67 67 68 70 72 73 75 77 79 80 83 84 86 87 88 89 89 90 90 89 87 85 82 79 75 71 66 61 56 51 46 42
77 76 74 72 70 70 70 72 73 75 77 78 79 78 78 80 81 81 81 83 84 84 84 83 82 81 81 82 82 82 82 82 82 82 82 82 82 81 80 79 77 75 74 74 74 73 73 71 69 67 66 66 66 66 67 67 68 70 72 74 76 78 80 81 83 84 86 87 88 89 90 91 91 91 89 87 84 80 76 72 68 63 57 53 48 42 39
77 76 75 73 72 72 73 74 75 77 79 79 79 80 81 82 82 82 84 85 86 86 85 85 84 83 84 84 84 84 85 85 84 84 84 84 83 82 81 79 76 75 75 75 75 74 73 71 69 68 67 67 67 67 67 68 69 71 74 76 78 80 82 83 85 86 87 88 89 90 91 91 91 91 88 84 81 77 73 69 64 59 55 50 44 39 36
79 78 77 76 75 75 76 77 78 79 80 80 80 82 83 83 83 84 84 85 86 87 87 86 85 85 85 86 86 86 86 86 86 85 85 84 83 82 80 78 76 76 76 76 75 74 73 71 69 68 68 68 68 68 69 69 71 73 76 78 80 82 84 85 87 88 88 90 90 91 91 91 90 89 86 81 78 74 70 65 61 56 52 46 41 36 33
82 81 80 79 78 78 78 79 80 81 81 82 82 83 83 83 84 84 84 85 87 87 87 87 87 87 87 87 88 88 87 87 86 86 85 84 83 81 79 77 76 76 76 76 75 74 72 71 70 69 69 69 69 70 70 72 73 76 78 80 82 84 85 87 88 89 90 91 91 91 91 90 88 86 83 78 74 70 66 62 57 53 48 42 37 33 30
83 82 82 81 81 81 81 81 81 82 83 83 84 84 83 84 84 84 85 85 87 87 87 88 88 89 89 89 89 89 88 88 87 86 85 84 82 81 79 78 77 76 76 76 75 73 72 71 70 69 69 70 71 72 73 74 76 77 79 82 84 85 87 88 90 90 91 92 92 92 91 88 85 83 79 74 70 66 63 58 54 50 45 38 33 31 28
85 84 84 84 84 83 83 83 83 83 84 84 84 84 85 85 85 86 86 86 87 88 89 89 90 90 91 91 90 90 89 88 87 86 85 83 82 80 79 78 77 76 76 75 74 73 72 71 70 70 71 72 73 74 75 77 78 79 81 83 85 87 89 90 91 92 92 93 92 92 89 86 82 79 75 71 66 62 59 55 51 48 42 35 30 29 27
87 86 87 87 87 86 86 86 85 85 85 85 85 86 86 87 88 88 88 88 89 89 90 90 91 91 92 91 91 90 89 88 87 86 84 83 82 80 79 78 77 76 75 75 74 73 72 71 70 71 73 74 75 76 77 79 80 82 84 86 87 89 90 92 93 93 93 92 92 90 87 83 79 76 72 67 62 59 56 52 48 45 40 32 28 28 26
89 89 90 90 89 88 88 88 88 87 87 87 88 89 89 89 90 90 90 90 90 91 91 92 92 92 92 92 92 91 90 89 87 86 84 83 81 80 79 77 76 75 75 74 74 73 72 71 71 73 75 76 77 78 79 81 82 84 86 88 89 91 92 93 94 94 93 92 90 87 84 81 76 72 68 63 58 56 53 48 45 43 38 31 27 27 26
91 91 92 91 90 90 90 90 90 90 90 90 91 91 91 91 92 92 92 92 92 92 93 93 92 92 92 92 91 91 90 88 87 86 84 82 81 80 78 76 75 74 74 74 74 73 72 72 73 75 77 78 79 80 82 83 85 86 88 89 91 92 93 94 95 94 93 90 87 84 82 78 73 69 64 58 55 52 49 45 42 41 36 30 26 26 25
93 94 94 93 92 92 92 92 92 92 93 93 93 93 93 93 93 94 94 94 94 94 94 93 93 93 92 92 91 90 89 88 86 85 83 82 81 79 77 75 73 73 74 75 75 74 73 73 75 77 78 80 81 82 84 85 87 88 89 91 92 93 94 95 95 94 92 88 85 82 79 75 70 65 59 54 51 49 45 42 40 39 35 29 26 25 25
95 96 95 94 93 93 94 94 94 94 95 95 95 95 95 95 95 95 95 96 96 95 95 94 93 93 92 91 90 89 87 86 85 83 82 81 79 77 75 74 73 73 74 75 76 75 75 76 78 79 80 81 83 84 86 87 88 90 91 92 93 94 94 94 94 92 90 86 83 80 76 71 66 60 55 51 48 44 41 39 38 38 35 29 26 25 24
96 97 97 96 95 95 96 96 96 96 96 96 96 96 96 96 96 97 97 97 97 96 95 94 93 92 91 90 88 87 86 84 83 82 81 80 78 76 74 73 73 73 75 76 77 77 78 79 81 82 82 84 85 86 87 88 90 91 92 93 93 94 94 93 92 90 88 84 81 77 73 68 62 56 51 47 44 39 36 36 37 38 35 29 26 24 24
97 98 98 98 97 97 98 98 97 98 98 97 97 98 98 97 97 97 97 98 97 96 95 94 92 91 90 88 86 85 84 83 81 80 79 78 77 75 74 74 73 75 76 78 79 80 81 82 83 84 85 86 86 87 89 90 91 92 92 93 93 93 93 92 90 88 85 82 79 75 70 65 59 53 47 43 39 35 34 34 35 36 34 30 26 24 24
98 100 100 100 99 99 99 99 99 100 100 99 99 98 98 98 97 97 98 98 97 96 94 93 91 90 88 86 84 83 81 80 79 78 77 76 76 76 76 75 75 77 78 80 82 83 84 85 86 86 87 88 88 89 90 91 91 92 92 92 92 92 91 90 89 86 84 80 76 72 67 62 56 49 43 38 34 32 32 33 33 34 33 29 27 25 24
101 102 102 102 101 101 101 101 101 101 100 99 99 99 99 98 97 97 97 96 95 94 93 91 90 88 85 83 81 80 78 77 77 76 76 76 77 77 78 77 78 79 81 82 84 85 86 86 88 89 89 90 90 91 91 92 92 92 92 91 91 90 90 89 87 85 82 77 73 68 64 59 54 47 41 35 31 30 32 32 31 32 32 29 27 26 25
104 104 103 102 102 102 102 101 101 100 100 99 99 99 98 97 96 95 95 94 93 92 91 89 87 85 82 80 78 77 76 76 76 76 77 78 79 80 80 80 81 81 83 84 85 87 87 88 89 90 91 92 92 92 93 92 92 92 91 90 90 89 88 87 85 83 79 74 69 65 61 57 52 46 40 33 29 29 31 31 30 31 31 29 27 26 26
104 104 103 101 100 100 101 100 99 98 97 97 97 96 95 94 94 93 92 90 89 88 87 85 83 80 79 77 76 76 76 77 77 78 79 81 82 83 83 83 83 84 85 87 88 89 89 90 91 92 92 93 93 93 93 93 92 91 91 90 89 88 86 85 83 80 76 70 65 62 59 55 50 45 37 30 28 29 29 30 30 29 28 28 27 26 26
100 100 100 99 98 97 97 96 95 94 94 94 93 92 91 90 89 88 87 86 85 84 83 81 80 79 78 78 78 79 79 79 80 81 82 83 84 85 85 85 86 87 88 89 90 91 91 92 92 93 93 93 93 93 93 92 91 91 90 89 88 86 85 83 80 77 72 67 62 59 56 52 50 44 35 28 28 30 29 28 28 27 27 27 27 27 26
94 94 94 94 93 93 91 91 90 89 89 89 88 87 87 86 85 85 85 84 84 83 82 81 80 80 80 81 82 82 83 83 84 85 85 86 87 88 88 88 88 89 90 92 93 93 93 93 93 93 93 93 93 93 92 92 91 90 89 88 87 85 83 80 77 72 68 63 59 56 52 49 48 44 36 29 28 31 31 30 29 27 26 26 27 28 28
90 90 89 89 89 88 87 86 86 86 86 86 86 86 85 85 85 86 86 86 85 85 84 84 83 84 84 85 86 86 86 86 87 87 87 88 89 90 91 91 91 92 92 93 94 94 94 94 93 93 93 93 92 92 91 91 90 89 88 86 85 83 80 77 72 67 63 60 56 52 49 46 44 42 38 32 28 29 32 33 32 30 29 28 28 29 30
87 88 88 88 88 87 87 86 86 87 87 87 87 87 87 87 87 88 88 88 88 87 87 87 88 88 89 90 90 89 89 89 89 89 89 90 91 92 93 93 93 93 94 94 94 94 94 93 93 93 92 92 92 91 90 89 88 87 86 84 82 80 76 72 67 62 59 57 53 50 46 43 39 37 37 36 32 30 31 33 34 34 33 32 30 29 29
87 88 89 90 90 89 89 89 89 89 89 89 89 89 89 90 90 90 90 90 90 90 90 91 91 92 93 94 93 92 91 92 92 91 91 92 93 93 93 93 94 94 94 94 94 94 93 93 92 92 91 91 91 90 89 88 86 84 83 81 79 76 72 67 62 58 55 53 50 46 43 40 36 35 35 36 34 32 31 33 34 35 34 33 31 30 30
89 88 89 90 91 92 92 92 92 92 92 92 91 91 92 92 92 92 92 92 92 92 92 93 94 95 96 96 94 94 94 93 93 92 92 92 93 93 93 93 93 94 94 94 93 93 93 92 91 91 90 90 89 88 87 85 83 81 79 77 75 71 67 62 58 55 52 49 46 42 39 36 34 33 33 34 35 34 34 35 35 35 34 34 33 32 32
91 90 90 90 92 93 94 94 94 94 93 93 93 93 93 93 93 93 93 93 93 93 94 94 95 96 96 96 95 95 94 94 93 93 92 92 93 93 93 93 93 93 93 93 92 92 91 90 89 89 88 87 86 85 83 82 80 77 75 73 70 67 63 59 56 53 49 45 42 39 36 34 33 32 32 34 35 36 37 37 37 37 36 36 36 36 36
93 92 91 91 92 93 94 95 95 95 95 94 93 93 93 93 93 93 93 94 94 94 95 95 95 95 95 95 95 95 94 94 93 93 93 92 92 92 92 92 92 92 91 91 90 89 88 87 87 86 85 84 82 81 79 78 75 73 71 68 66 62 59 56 54 51 46 42 39 37 35 34 33 33 34 35 36 37 37 38 37 37 38 39 39 40 39
94 93 92 93 93 94 95 95 95 95 95 94 93 93 94 94 94 94 94 94 95 95 94 94 94 95 95 95 95 95 94 94 93 92 92 91 90 90 89 89 89 89 88 87 86 85 84 84 83 82 81 79 77 76 75 73 71 69 66 64 60 58 57 55 52 49 45 41 39 37 36 35 35 35 36 36 37 37 37 37 37 38 39 40 40 41 41
94 93 93 93 95 96 96 96 95 95 94 94 94 94 95 95 95 94 94 95 95 95 93 93 93 94 94 94 94 94 93 92 91 90 89 88 87 86 86 86 85 84 84 83 82 81 80 79 78 77 76 74 73 72 71 69 67 64 62 59 57 55 54 53 50 46 44 41 39 37 37 37 37 38 38 38 38 38 38 39 39 40 40 41 41 42 43
93 93 93 94 95 96 96 95 95 94 94 93 94 94 94 94 94 93 92 93 93 92 90 91 92 93 92 92 92 91 89 87 86 86 85 84 83 83 82 81 80 80 79 78 77 77 76 75 74 72 71 70 69 68 66 65 62 59 57 55 54 53 51 49 46 45 43 41 39 38 38 38 39 39 39 38 39 39 40 41 41 41 41 41 42 42 42
91 91 92 93 94 93 93 92 92 91 90 90 90 90 90 90 90 90 89 89 88 87 87 89 90 90 88 88 87 85 83 82 81 81 80 79 78 77 76 76 75 74 74 73 73 72 71 70 69 68 67 66 64 63 61 59 57 55 53 53 52 51 48 45 44 43 43 42 40 39 39 39 39 39 39 38 39 40 41 41 41 41 41 41 41 40 39
87 87 88 88 88 87 86 86 85 84 84 83 83 83 84 86 85 84 83 83 82 81 82 83 85 84 83 82 81 80 79 78 77 76 75 74 73 72 71 70 69 69 69 68 68 67 66 65 64 63 62 60 58 57 56 55 54 53 52 50 48 46 44 43 43 43 42 41 40 39 39 39 39 39 39 39 39 40 40 40 41 41 41 41 40 40 39
79 79 79 79 78 77 76 76 76 75 75 75 75 76 78 79 78 78 77 76 75 74 74 75 76 77 77 77 76 75 74 73 72 71 70 69 67 66 65 64 64 64 63 62 61 60 59 58 57 56 55 54 53 52 52 52 52 51 49 47 45 44 43 43 42 42 41 40 39 39 39 39 39 39 40 40 40 40 40 40 41 41 41 41 41 41 40
69 70 70 69 69 68 67 67 67 67 67 67 67 68 69 70 71 73 73 71 68 67 66 66 67 67 68 67 67 67 67 66 66 65 63 62 60 59 58 58 57 57 55 54 53 52 51 51 50 50 50 50 50 50 50 49 48 47 46 45 44 43 43 42 41 40 39 38 38 38 38 38 38 38 39 39 40 40 40 40 40 40 40 41 41 41 41
61 61 62 62 61 60 60 60 60 61 61 61 61 62 63 63 64 66 66 64 61 60 59 58 58 58 58 58 58 58 58 58 58 57 56 54 53 52 51 51 50 48 47 46 46 46 46 46 46 47 48 48 49 48 47 46 45 44 44 43 42 41 40 40 39 38 38 37 37 37 37 37 37 37 38 38 38 39 39 39 39 39 39 39 39 39 40
54 55 55 55 54 54 54 54 54 54 55 55 55 56 57 57 57 57 57 56 54 54 53 53 52 52 52 51 51 51 51 51 50 50 49 48 47 46 46 45 44 43 43 43 43 44 44 44 45 45 45 45 45 45 45 44 43 42 41 40 39 38 37 36 37 37 36 36 36 36 36 36 36 37 37 37 38 38 39 39 39 39 38 38 39 39 39
47 47 47 47 47 46 46 46 46 47 48 49 49 50 50 50 49 48 48 48 49 49 48 48 47 47 47 47 47 47 46 46 45 45 44 44 43 43 43 42 42 42 41 42 42 42 42 42 42 42 42 42 42 42 41 40 39 39 38 37 36 35 34 34 34 34 34 34 34 34 35 35 36 37 37 38 38 39 39 40 40 40 40 40 40 40 40
39 39 39 39 39 38 38 38 39 40 42 43 44 44 44 43 42 42 43 44 45 44 44 44 44 44 44 44 44 44 44 43 43 43 43 42 42 42 42 42 41 40 40 39 40 40 39 39 39 39 39 39 38 37 36 36 36 36 35 34 33 32 32 32 32 32 32 33 34 35 36 36 37 38 38 39 40 40 41 41 42 42 42 42 42 42 43
31 31 31 31 31 31 32 34 35 37 38 38 39 39 39 38 38 39 39 40 40 41 41 42 42 42 42 42 42 42 42 42 42 42 42 42 42 41 40 39 38 37 36 36 36 36 36 36 35 35 35 35 34 33 32 32 32 32 32 31 31 31 31 32 32 33 33 34 35 36 37 38 38 39 40 41 41 42 42 43 43 44 44 44 44 44 45
24 24 25 25 26 27 29 31 32 33 33 33 33 34 34 34 35 36 37 38 38 39 40 41 41 41 41 42 42 42 42 42 42 41 41 40 39 38 36 35 34 34 33 33 33 33 33 32 32 31 31 30 30 29 29 29 29 30 30 30 31 31 32 33 33 34 35 36 37 37 38 39 39 40 41 41 42 42 42 42 43 43 43 43 44 44 44
18 19 20 22 23 24 25 27 28 28 29 29 30 31 32 32 33 35 36 37 38 39 39 40 40 41 41 42 42 42 42 41 40 39 38 36 35 33 32 32 31 31 31 30 30 29 28 28 28 27 27 27 27 27 27 28 29 29 30 31 31 32 33 34 34 35 36 37 37 38 38 39 39 39 40 40 40 41 41 40 40 40 40 41 41 41 41
17 18 19 21 22 22 23 24 25 26 27 28 29 31 32 33 34 35 36 37 38 39 39 40 40 41 41 41 41 40 39 38 36 35 34 33 31 30 29 29 29 28 28 27 26 25 25 26 26 26 26 26 27 27 28 29 29 30 30 31 32 32 33 34 35 35 36 36 37 37 37 38 38 38 38 39 39 39 38 38 38 38 38 38 38 37 37
20 21 22 23 24 24 24 24 24 25 26 28 30 31 33 34 35 36 37 38 39 39 39 39 39 39 38 37 36 36 35 34 32 31 30 29 28 27 27 27 27 27 26 26 25 25 25 26 26 26 26 26 26 27 28 29 29 30 31 31 32 32 32 33 34 34 35 35 36 36 36 36 36 36 36 36 36 36 35 35 34 34 34 34 34 34 33
Wind_Direction
266 266 267 268 270 271 273 275 277 279 280 282 284 288 290 291 293 294 295 297 295 295 298 301 302 303 303 304 305 307 307 308 308 309 310 311 312 314 316 316 316 316 316 315 313 312 311 311 310 309 309 308 306 306 305 305 304 303 303 304 304 304 305 306 307 308 309 311 313 315 316 316 316 317 317 317 318 318 318 319 319 318 318 318 318 319 319
265 266 266 267 269 271 272 274 276 278 279 281 284 287 288 289 291 293 294 294 293 295 298 300 301 302 303 303 304 305 305 306 306 307 308 309 311 313 314 315 315 315 315 313 312 311 311 310 310 310 309 307 306 305 305 304 303 303 303 303 304 305 306 307 308 310 312 313 315 316 317 317 317 318 318 318 318 318 318 318 318 317 317 317 317 318 317
264 265 266 268 269 271 273 274 275 277 278 281 284 285 286 288 290 291 291 291 291 293 296 298 298 300 301 301 302 303 303 304 305 306 307 309 311 313 314 314 314 314 313 312 311 310 310 310 310 310 308 307 306 305 304 304 303 303 303 304 304 305 306 307 309 311 313 315 316 317 317 318 318 318 318 318 318 318 318 317 317 316 316 316 317 317 316
263 265 267 269 270 272 274 275 275 276 279 281 282 283 285 287 288 288 288 289 289 291 294 295 296 297 298 299 300 300 301 302 303 305 306 309 311 312 313 313 313 313 312 311 310 310 310 310 310 308 307 306 305 305 305 304 304 303 303 304 305 306 307 308 310 313 315 316 317 318 318 318 318 318 318 318 318 318 317 316 316 315 315 316 316 315 314
263 265 268 270 272 275 276 275 276 277 279 280 281 282 284 286 286 286 286 287 289 291 292 293 295 296 296 297 298 299 300 301 303 304 306 308 310 311 311 312 312 311 311 310 310 310 310 309 308 307 306 306 305 305 305 304 303 303 303 305 306 306 308 310 312 314 316 317 318 319 319 319 318 318 318 318 318 317 316 316 315 315 315 315 314 314 313
265 266 268 270 273 275 275 275 277 279 279 279 281 283 285 285 284 284 285 287 289 291 292 293 294 294 295 296 297 298 300 301 302 304 306 308 309 310 310 310 311 311 310 310 310 310 309 308 306 306 306 305 305 305 304 303 302 303 304 306 307 308 309 311 313 315 317 318 319 319 319 319 318 318 318 318 317 316 315 315 314 314 314 314 313 312 311
266 267 268 270 272 273 274 276 278 278 278 280 282 283 284 284 284 284 285 288 289 290 291 291 292 294 295 296 297 299 300 301 302 304 306 307 308 308 309 310 310 310 310 310 309 308 307 306 305 306 306 305 305 304 304 303 303 305 306 307 307 308 310 312 315 317 318 319 319 319 318 318 318 318 317 317 316 315 315 314 313 313 313 312 312 311 310
265 267 268 269 270 272 274 276 276 276 278 280 282 283 283 283 283 284 286 288 289 289 289 290 292 293 294 295 297 298 299 301 302 304 305 306 307 308 308 309 309 309 309 309 308 307 306 305 305 306 305 304 304 304 304 304 305 306 308 307 307 308 311 314 316 318 318 318 318 318 317 317 317 317 316 316 315 315 314 314 313 312 312 311 310 309 308
264 265 267 268 270 271 273 274 274 275 278 279 280 282 283 282 282 285 287 288 288 288 289 290 291 293 294 295 296 297 298 300 302 303 304 305 306 306 307 308 308 308 308 308 307 306 305 305 305 305 304 304 304 304 304 305 306 307 307 307 308 310 313 315 317 317 317 317 317 317 317 317 317 316 316 316 315 314 314 313 312 311 311 310 309 308 307
264 265 267 269 270 271 272 272 273 274 276 277 279 281 281 281 282 285 287 287 287 288 289 290 291 293 294 295 295 297 298 300 301 302 302 303 304 305 306 307 307 307 307 307 306 305 304 304 304 304 304 304 303 304 304 305 305 306 307 308 310 312 314 315 316 316 315 315 316 316 317 317 317 316 316 315 314 313 313 312 312 311 310 309 308 307 304
264 265 267 269 270 270 270 270 271 272 274 276 279 280 280 280 282 285 286 286 287 288 289 291 292 293 293 294 295 297 298 299 300 301 302 303 304 304 305 306 307 307 307 306 305 303 303 303 303 304 304 303 303 303 303 304 305 307 308 309 311 312 313 314 314 314 314 315 316 316 317 317 317 316 316 315 314 313 313 312 311 310 309 308 307 305 302
263 265 266 268 268 268 268 269 270 271 273 276 278 279 279 280 283 284 285 285 287 288 290 291 292 293 293 294 295 297 298 299 300 301 301 302 303 304 305 306 307 306 305 304 303 302 302 303 303 303 303 302 302 302 303 304 306 308 308 309 310 311 311 312 313 313 314 315 316 316 317 317 317 316 315 314 313 313 313 312 311 309 308 307 306 303 299
263 264 265 266 266 266 267 267 269 270 273 275 277 278 279 280 282 283 284 285 287 288 289 291 292 293 293 294 296 297 298 299 300 301 301 302 303 304 305 306 306 305 304 303 302 302 302 302 302 302 302 302 302 302 303 305 307 307 308 308 309 309 310 311 312 313 314 314 315 316 317 317 316 315 314 314 313 313 312 311 310 308 307 306 304 301 296
261 262 263 264 265 265 266 267 268 270 272 274 276 277 279 280 281 282 284 285 286 288 289 290 291 292 292 294 295 296 297 298 299 300 301 301 302 303 304 304 304 303 302 302 301 301 301 301 301 301 301 301 301 302 304 305 306 306 306 307 308 308 309 310 311 313 313 314 315 316 316 316 315 314 313 314 314 313 312 310 309 307 305 304 302 299 292
261 263 264 264 264 265 265 266 268 270 271 273 275 276 278 279 280 281 283 284 285 287 288 289 290 291 291 293 294 295 296 297 298 299 300 300 301 302 303 303 302 302 301 301 300 300 300 300 300 301 301 301 302 303 304 305 305 305 305 306 306 307 309 310 311 312 313 314 315 316 316 316 315 314 314 314 314 312 311 309 307 305 304 303 300 295 287
262 263 263 264 264 265 265 266 268 269 271 273 275 276 277 278 280 281 282 283 284 285 286 288 289 290 291 293 294 295 296 296 297 298 299 299 300 301 301 301 301 301 300 300 299 299 299 300 300 300 301 301 302 302 303 303 303 304 304 305 306 307 309 310 310 311 313 314 315 316 315 315 314 314 314 314 313 311 309 307 305 303 302 300 297 290 283
261 262 263 264 264 265 265 266 268 269 271 272 274 275 276 277 279 280 280 281 282 284 285 287 288 289 291 292 293 294 295 296 296 297 298 298 299 300 300 300 300 300 299 298 298 298 299 299 300 300 301 301 301 301 301 302 302 303 304 305 306 308 309 309 310 312 313 314 315 315 315 315 315 315 314 314 313 310 307 305 303 300 300 298 292 285 278
261 261 262 263 264 265 266 267 268 269 270 272 273 274 275 276 277 278 279 280 282 283 284 286 288 289 291 292 292 293 294 295 296 296 297 297 298 299 299 299 299 299 298 297 297 297 298 299 299 300 299 299 299 300 300 301 302 303 304 306 307 308 309 310 311 312 313 314 314 314 314 315 315 315 315 314 311 308 305 303 300 298 297 294 288 281 275
260 261 262 263 264 265 266 267 268 269 269 271 272 273 274 276 277 278 279 280 281 283 284 285 287 288 289 291 292 293 294 294 295 296 296 297 298 298 298 298 298 297 297 296 296 296 297 298 298 298 298 298 298 299 300 301 303 304 305 306 307 308 309 309 310 311 312 313 314 314 315 315 316 316 315 312 309 306 304 301 298 296 295 292 285 279 273
260 260 262 263 264 265 265 266 267 268 269 270 272 273 274 275 276 277 279 280 281 282 284 285 286 287 288 290 291 292 293 294 294 295 296 296 297 297 297 297 297 296 295 295 295 295 296 297 297 296 297 297 298 300 301 302 303 304 305 306 307 307 308 309 310 311 312 313 314 315 315 316 316 316 314 311 307 305 302 299 295 293 292 290 283 277 271
260 261 262 263 264 264 265 266 267 269 270 271 272 273 274 275 276 278 279 280 281 282 283 284 286 287 288 289 290 291 292 293 294 294 295 295 295 295 295 295 295 294 294 293 294 294 295 295 296 296 296 298 299 300 301 302 303 304 305 306 306 307 308 308 309 310 311 313 314 315 315 316 316 315 312 309 306 303 300 297 293 290 289 287 281 274 267
260 261 262 263 264 265 266 267 268 269 270 271 272 273 274 275 277 278 279 280 281 282 283 284 285 286 287 288 289 290 291 292 292 293 293 293 293 293 293 293 293 292 292 292 293 294 295 295 295 295 296 297 299 300 301 302 303 304 304 305 306 306 307 308 309 310 311 313 314 315 315 315 315 314 311 308 305 301 296 292 289 287 286 284 278 272 266
260 262 263 263 264 265 267 268 269 270 271 271 272 274 275 276 277 278 278 279 280 281 282 283 284 285 286 287 288 288 289 290 290 291 291 291 291 291 291 291 291 291 291 292 293 293 294 294 295 296 297 298 299 300 301 301 302 303 304 304 305 306 307 308 309 310 311 313 315 315 314 314 314 313 311 307 302 296 290 285 283 283 283 281 276 271 265
260 261 262 264 265 266 267 268 269 269 270 271 272 273 275 276 276 277 278 279 280 281 282 282 283 284 285 286 286 287 287 288 288 288 288 289 289 289 289 289 290 290 291 292 292 293 294 294 295 296 297 297 298 299 300 301 301 302 303 304 305 306 306 307 309 310 312 314 315 314 313 313 313 313 311 306 298 289 282 278 277 279 280 278 275 269 263
259 261 262 264 264 265 266 267 268 269 270 271 272 273 274 275 276 277 277 278 279 280 281 281 282 283 284 285 285 286 286 286 286 286 286 287 287 287 288 288 289 290 290 291 292 293 293 294 295 295 296 297 298 298 299 300 300 301 302 303 304 305 306 307 309 310 312 314 314 313 312 312 312 312 309 303 293 281 275 272 272 274 276 275 273 269 261
259 261 262 263 264 266 267 267 268 269 271 272 272 273 274 275 275 276 277 278 279 280 280 281 282 282 283 283 284 284 284 284 284 285 285 285 286 286 287 287 288 289 290 290 291 292 293 293 294 295 296 297 297 298 299 299 300 301 302 303 304 305 306 307 309 311 312 313 312 311 311 310 310 309 307 299 287 275 269 267 267 270 272 272 271 267 261
260 261 263 264 265 266 266 267 268 270 271 271 272 273 274 274 275 276 276 277 278 279 280 281 281 282 282 282 283 283 283 283 283 284 284 285 285 285 286 287 288 289 289 290 291 291 292 293 294 295 295 296 297 298 298 299 300 301 302 303 304 305 306 308 309 310 311 311 310 310 309 307 306 307 304 296 282 272 266 262 261 264 268 269 268 264 259
261 262 263 263 264 265 267 267 268 269 270 271 272 272 273 274 275 275 276 277 278 278 279 280 281 281 281 282 281 281 282 282 282 283 283 284 285 285 286 287 288 289 289 290 290 291 292 292 293 294 295 296 297 297 298 299 300 301 302 303 304 305 307 308 309 310 310 309 308 307 306 304 303 303 301 290 276 268 263 258 257 260 264 266 267 264 258
261 262 263 264 265 266 267 268 269 269 270 270 271 272 273 274 275 275 276 277 277 278 279 279 280 281 281 281 281 281 282 282 282 283 283 284 285 286 286 287 288 289 289 290 290 291 292 292 293 294 295 295 296 297 298 299 300 301 302 303 304 305 307 307 308 308 308 307 306 305 304 302 300 300 296 281 266 260 256 254 256 259 261 262 263 263 260
262 263 264 265 266 266 267 268 269 269 270 271 272 273 273 274 275 275 276 276 277 278 279 279 280 280 280 280 281 281 281 282 282 282 283 284 285 286 287 288 288 289 289 290 290 291 292 292 293 294 294 295 296 297 298 299 300 301 302 303 304 305 306 306 307 307 306 306 304 303 301 299 297 295 292 279 261 252 250 251 254 258 258 258 258 260 260
264 265 265 266 267 267 268 269 269 270 271 271 272 273 273 274 274 275 276 276 277 278 279 279 279 280 280 280 280 280 280 281 282 283 284 285 285 286 287 288 288 288 289 289 290 291 291 292 293 293 294 295 296 297 297 299 300 301 302 303 303 304 305 305 306 306 305 304 303 301 298 295 292 290 288 282 268 254 249 249 251 253 254 255 255 256 257
264 265 266 267 267 268 268 269 269 269 270 271 272 272 273 273 274 275 275 276 277 278 279 279 280 280 280 279 280 280 281 282 283 283 284 285 285 286 287 287 288 288 288 289 289 290 291 291 292 293 294 295 295 296 297 298 299 300 301 302 303 303 304 305 305 305 304 302 301 298 295 291 287 284 281 278 273 262 253 249 250 251 253 253 252 252 254
263 264 266 267 268 268 269 269 269 270 270 271 272 272 273 274 275 275 276 277 278 279 279 280 280 280 279 280 280 281 282 282 283 283 284 284 285 285 286 286 287 287 288 288 289 289 290 291 292 293 294 294 295 296 297 298 299 299 300 301 302 303 304 304 304 304 302 301 299 296 293 288 284 280 276 274 272 267 260 255 253 253 253 253 252 252 253
263 264 265 267 268 269 269 269 270 271 271 272 273 274 274 275 275 276 277 278 278 279 279 279 279 279 279 280 281 281 281 282 283 283 284 284 284 285 285 286 286 286 287 287 288 289 290 291 292 292 293 294 294 295 296 297 298 299 300 301 302 303 303 303 303 302 301 300 297 294 290 287 282 278 274 270 268 268 265 262 260 259 258 258 258 257 256
264 265 265 267 268 269 270 271 271 272 272 273 274 275 275 276 277 277 278 278 278 278 278 278 278 279 280 280 281 281 281 282 282 283 283 283 283 284 284 284 285 285 286 287 288 289 290 290 291 292 292 293 294 295 296 297 298 299 300 301 302 302 302 302 302 302 301 299 296 293 290 287 283 278 273 268 265 264 264 263 263 263 264 265 265 264 262
265 265 266 267 268 269 270 271 272 273 273 274 275 275 276 277 277 278 278 278 278 278 279 279 279 280 280 281 281 281 282 282 282 282 282 282 282 282 283 284 285 285 286 287 288 288 289 289 290 290 291 292 293 294 295 296 297 298 299 300 301 301 302 302 303 302 301 299 297 294 291 288 283 278 273 269 265 263 263 263 263 264 265 266 266 267 265
266 267 267 268 268 269 269 270 271 272 273 275 275 276 276 277 277 278 278 279 279 279 279 279 280 280 280 281 281 281 281 281 281 281 282 282 283 283 284 284 285 285 286 286 287 287 288 288 288 289 290 291 292 293 294 295 296 297 298 299 300 301 301 302 302 302 300 300 298 294 291 287 282 277 273 270 267 267 267 266 266 266 265 265 265 266 265
268 268 269 269 269 269 270 270 271 272 273 274 275 275 276 276 276 277 277 277 277 278 278 279 279 279 279 279 279 279 280 280 282 283 283 284 284 284 284 284 284 285 285 285 285 286 286 287 288 289 290 291 292 292 293 295 296 297 298 298 299 300 301 302 301 300 299 298 297 293 289 284 280 277 275 272 271 270 269 269 268 267 267 266 267 267 266
269 269 269 269 269 269 270 270 271 272 272 273 273 274 274 274 275 275 275 275 275 276 277 277 277 277 277 278 279 280 281 283 284 284 284 284 284 283 283 283 283 283 283 284 284 285 285 286 287 288 289 290 291 292 293 294 295 296 297 297 298 299 300 299 298 297 297 296 294 290 285 281 278 276 275 274 271 270 269 268 268 268 268 269 269 269 268
268 268 268 268 268 269 269 270 270 271 271 271 272 272 272 272 272 272 273 273 274 275 276 276 277 277 278 279 280 282 283 284 284 283 283 283 283 282 282 282 282 282 282 283 283 284 285 286 287 288 289 289 291 291 292 293 294 295 296 297 298 298 297 296 295 295 295 294 291 287 284 281 279 278 277 275 273 271 270 270 270 271 271 271 271 270 269
267 267 267 267 267 267 268 268 269 269 269 269 270 270 270 270 270 271 272 273 274 274 275 276 277 279 280 281 282 283 284 284 284 284 283 283 283 283 282 282 282 282 282 282 283 284 285 286 287 288 289 290 291 292 292 293 293 294 295 296 296 296 295 294 293 293 292 290 288 286 284 282 280 279 278 276 275 274 273 273 273 273 273 273 273 273 271
266 266 266 266 266 267 267 267 267 267 267 267 267 268 269 270 271 272 272 272 272 273 274 276 277 279 280 281 282 283 283 284 284 284 284 283 283 283 283 282 282 282 283 283 285 286 287 287 288 289 290 290 291 291 292 292 293 294 295 295 294 293 293 292 292 291 289 287 285 283 282 281 281 280 278 277 277 276 276 275 275 274 274 274 274 274 273
264 265 265 265 265 265 265 266 266 266 266 266 266 267 268 270 271 272 273 273 275 276 276 276 276 277 278 279 280 281 281 282 282 282 282 283 283 283 283 283 283 284 285 287 287 288 288 288 289 289 289 290 290 290 291 291 292 293 293 293 293 292 291 291 290 288 286 285 284 282 281 281 280 279 278 278 277 277 277 276 276 275 275 274 274 273 273
262 262 262 263 263 264 264 264 265 265 265 265 265 266 267 268 269 272 274 276 278 277 276 275 275 276 277 277 278 279 279 279 280 281 282 283 283 284 285 286 287 288 289 289 289 289 288 288 288 289 289 290 290 290 291 292 292 292 292 291 291 290 289 289 288 286 285 285 284 284 283 283 282 281 281 280 280 279 279 278 278 277 276 276 275 274 273
258 259 260 261 262 263 263 263 264 264 265 265 265 266 266 267 269 271 274 276 276 277 276 277 277 278 279 279 280 280 280 281 282 284 285 286 287 288 289 289 290 290 290 289 288 288 288 288 289 289 289 289 290 290 291 292 292 292 291 291 290 289 288 286 285 285 285 285 285 285 285 285 285 284 284 284 283 283 283 282 281 281 280 279 279 278 277
256 258 259 260 261 262 262 263 263 264 264 265 265 266 267 269 270 272 273 274 275 276 277 278 280 281 282 282 283 284 285 286 287 288 289 290 290 290 290 290 290 290 289 289 289 289 290 290 289 289 289 289 289 290 291 292 292 292 291 291 291 289 288 286 285 285 285 285 285 285 285 285 285 285 284 284 284 284 284 283 283 283 282 282 281 280 279
254 255 256 258 259 259 260 260 260 260 261 263 265 266 269 271 272 272 272 272 274 276 278 279 281 282 283 284 285 287 288 289 290 290 291 291 291 290 290 290 291 291 291 291 291 290 290 289 289 289 289 289 289 290 291 291 291 291 290 290 289 288 287 287 286 286 286 286 286 285 285 285 285 285 284 284 284 284 283 283 283 283 282 282 281 280 279
250 251 252 253 254 255 255 255 256 258 260 263 266 268 270 271 271 270 271 273 275 277 278 279 281 282 284 286 288 289 289 290 290 291 290 290 290 291 291 291 292 292 292 291 290 289 288 287 287 288 288 288 289 290 290 290 289 289 288 288 288 287 287 287 286 286 286 286 285 286 285 285 285 285 285 284 284 283 282 282 281 281 281 280 280 279 278
247 248 249 249 249 249 251 254 257 260 262 265 267 268 269 270 271 271 273 274 275 276 278 280 282 285 287 288 289 290 290 290 290 290 290 290 291 291 292 292 292 291 289 288 287 286 286 287 287 288 288 288 289 289 289 288 287 287 287 287 287 287 287 288 288 288 288 288 288 288 288 287 286 286 285 284 283 282 282 281 281 280 280 279 279 278 277
246 247 248 249 250 252 254 257 259 261 263 264 266 268 269 270 271 272 273 274 276 278 280 283 286 288 289 290 290 290 290 290 289 289 290 290 291 292 292 291 289 288 286 285 286 287 288 288 288 288 288 288 289 289 288 287 287 287 287 287 288 289 290 291 291 291 291 291 291 290 290 289 289 288 287 286 285 285 284 283 283 282 281 280 279 278 278
242 244 248 253 257 260 262 263 262 262 263 264 266 268 269 270 271 273 275 277 280 282 284 287 288 289 289 289 289 288 289 289 289 290 290 291 292 291 291 289 288 287 287 287 288 288 288 287 286 286 287 288 288 288 288 287 288 288 289 290 291 292 293 293 293 293 293 294 294 294 293 292 291 291 289 289 288 287 286 286 285 284 282 281 281 280 279
241 245 251 257 262 265 267 266 266 266 267 268 269 270 272 273 275 277 280 282 284 286 287 288 288 287 287 286 287 287 287 288 289 290 291 291 291 290 289 288 288 287 288 289 289 289 287 286 285 287 288 288 288 288 288 288 289 290 290 291 293 294 295 295 296 297 297 297 296 295 294 293 292 291 290 289 288 288 287 287 286 285 284 283 282 281 280
Height
10895 10897 10899 10900 10901 10902 10903 10903 10904 10903 10902 10902 10901 10901 10901 10899 10898 10896 10892 10891 10886 10880 10881 10882 10880 10878 10876 10873 10873 10872 10870 10868 10866 10865 10864 10862 10861 10859 10857 10855 10852 10848 10845 10841 10837 10834 10831 10828 10826 10823 10821 10818 10815 10812 10809 10806 10802 10799 10796 10793 10791 10788 10785 10781 10777 10773 10768 10764 10759 10754 10749 10744 10739 10735 10729 10724 10717 10711 10705 10701 10697 10691 10687 10682 10678 10673 10670
10888 10890 10892 10893 10894 10896 10897 10897 10898 10897 10896 10896 10896 10896 10895 10893 10893 10891 10888 10884 10878 10874 10876 10876 10873 10872 10870 10868 10867 10865 10863 10861 10860 10858 10857 10856 10855 10853 10851 10849 10845 10842 10838 10834 10830 10827 10824 10821 10818 10816 10813 10811 10808 10805 10802 10799 10795 10792 10789 10786 10784 10781 10778 10774 10770 10766 10761 10756 10752 10747 10741 10736 10731 10726 10721 10716 10710 10704 10698 10693 10689 10684 10679 10675 10670 10666 10662
10882 10883 10884 10886 10887 10889 10891 10892 10891 10889 10889 10890 10890 10889 10888 10888 10888 10885 10883 10879 10873 10870 10872 10871 10868 10866 10865 10863 10862 10860 10857 10855 10853 10852 10850 10849 10848 10847 10844 10842 10838 10835 10831 10827 10824 10820 10817 10814 10811 10808 10806 10803 10800 10798 10795 10791 10788 10784 10782 10779 10777 10774 10770 10767 10763 10758 10754 10749 10744 10738 10733 10728 10723 10718 10713 10708 10703 10697 10691 10685 10681 10676 10671 10667 10663 10658 10655
10876 10877 10876 10878 10880 10882 10884 10884 10882 10882 10883 10883 10883 10882 10882 10883 10882 10879 10877 10874 10870 10867 10867 10865 10863 10861 10860 10858 10856 10854 10851 10849 10847 10845 10844 10843 10841 10839 10837 10834 10831 10828 10824 10821 10817 10813 10810 10807 10804 10801 10798 10795 10793 10790 10787 10784 10780 10777 10775 10772 10769 10766 10762 10759 10755 10750 10746 10741 10736 10730 10725 10720 10715 10710 10705 10700 10695 10689 10683 10677 10672 10668 10663 10659 10655 10651 10647
10870 10871 10871 10870 10872 10876 10876 10873 10872 10874 10876 10876 10875 10875 10876 10876 10875 10872 10870 10867 10865 10864 10862 10859 10857 10855 10853 10852 10850 10848 10846 10843 10841 10839 10838 10836 10834 10832 10830 10827 10824 10821 10818 10814 10811 10807 10804 10800 10797 10794 10791 10788 10785 10783 10780 10776 10773 10770 10768 10765 10761 10757 10754 10751 10746 10742 10738 10733 10728 10722 10716 10711 10706 10701 10696 10692 10687 10681 10675 10669 10664 10659 10655 10651 10647 10643 10640
10863 10865 10865 10865 10868 10870 10866 10863 10864 10866 10867 10866 10866 10868 10869 10867 10865 10864 10862 10861 10860 10858 10856 10853 10850 10848 10846 10845 10844 10842 10840 10837 10835 10833 10832 10830 10828 10825 10823 10820 10817 10814 10811 10807 10804 10800 10797 10793 10789 10787 10784 10781 10777 10775 10772 10768 10765 10762 10760 10757 10753 10749 10745 10742 10738 10734 10729 10724 10719 10714 10708 10702 10697 10692 10688 10683 10678 10672 10667 10661 10656 10651 10647 10643 10639 10636 10633
10857 10858 10858 10860 10864 10862 10857 10856 10858 10857 10855 10856 10859 10860 10859 10857 10855 10854 10854 10854 10853 10850 10848 10846 10844 10842 10840 10837 10836 10835 10833 10830 10828 10826 10824 10822 10820 10818 10815 10813 10810 10807 10803 10800 10796 10793 10789 10786 10782 10780 10777 10773 10769 10767 10763 10760 10757 10754 10752 10748 10744 10740 10737 10734 10730 10725 10720 10715 10710 10705 10700 10695 10690 10685 10680 10674 10669 10664 10659 10654 10648 10643 10639 10635 10631 10628 10625
10849 10850 10851 10854 10858 10855 10851 10850 10849 10846 10846 10849 10851 10851 10850 10846 10843 10845 10846 10846 10844 10842 10840 10839 10837 10835 10833 10830 10829 10828 10826 10823 10821 10819 10816 10814 10812 10809 10807 10804 10802 10799 10796 10792 10789 10786 10782 10778 10775 10773 10769 10765 10761 10758 10755 10751 10748 10746 10743 10740 10736 10732 10729 10725 10720 10716 10711 10706 10701 10697 10692 10687 10682 10676 10671 10666 10660 10655 10650 10646 10640 10635 10631 10627 10623 10620 10618
10841 10842 10843 10846 10850 10849 10846 10842 10839 10838 10839 10841 10841 10844 10842 10834 10831 10835 10839 10837 10835 10833 10831 10830 10830 10829 10826 10824 10822 10821 10818 10817 10815 10813 10810 10807 10804 10802 10800 10797 10794 10791 10788 10785 10782 10778 10774 10770 10768 10766 10762 10758 10754 10750 10747 10743 10740 10737 10734 10731 10727 10723 10719 10716 10712 10708 10703 10698 10693 10688 10684 10679 10673 10667 10662 10657 10651 10646 10641 10636 10631 10626 10622 10619 10615 10612 10610
10832 10834 10836 10839 10842 10843 10839 10833 10830 10831 10832 10832 10833 10837 10834 10824 10820 10827 10829 10826 10824 10823 10822 10822 10822 10821 10819 10817 10815 10813 10811 10810 10808 10806 10803 10800 10798 10795 10793 10790 10787 10784 10781 10778 10774 10770 10766 10763 10761 10759 10756 10751 10746 10743 10740 10736 10733 10730 10725 10721 10718 10714 10710 10708 10705 10701 10695 10690 10685 10680 10675 10670 10663 10657 10652 10647 10641 10637 10632 10627 10621 10617 10613 10611 10608 10605 10602
10825 10826 10828 10832 10834 10834 10830 10825 10822 10822 10824 10824 10826 10829 10825 10815 10813 10819 10819 10814 10813 10813 10813 10813 10813 10812 10811 10808 10806 10805 10803 10801 10799 10797 10795 10792 10790 10788 10786 10783 10780 10776 10773 10769 10765 10761 10758 10755 10753 10751 10748 10744 10740 10736 10733 10729 10726 10722 10716 10712 10709 10705 10702 10701 10698 10693 10688 10683 10678 10672 10666 10660 10654 10647 10642 10637 10632 10627 10622 10617 10611 10607 10604 10602 10600 10598 10595
10816 10817 10820 10824 10825 10824 10821 10817 10813 10812 10814 10817 10818 10819 10816 10810 10808 10809 10807 10804 10803 10803 10803 10803 10803 10802 10800 10798 10797 10796 10794 10792 10790 10788 10785 10783 10781 10779 10777 10774 10771 10767 10764 10760 10756 10753 10750 10747 10745 10743 10741 10736 10733 10729 10726 10722 10718 10714 10708 10704 10701 10698 10695 10693 10689 10685 10680 10675 10670 10664 10657 10651 10644 10637 10632 10627 10621 10616 10612 10607 10602 10598 10596 10594 10592 10591 10589
10806 10809 10812 10815 10816 10814 10812 10809 10806 10804 10804 10807 10809 10809 10807 10805 10803 10800 10797 10795 10793 10793 10794 10794 10793 10792 10790 10788 10787 10786 10784 10782 10780 10778 10775 10774 10772 10770 10767 10765 10762 10758 10755 10751 10747 10744 10742 10740 10738 10736 10733 10729 10725 10722 10718 10715 10711 10706 10701 10698 10695 10691 10688 10685 10681 10677 10673 10667 10662 10657 10650 10643 10635 10628 10622 10618 10612 10606 10602 10597 10593 10590 10587 10586 10585 10583 10582
10796 10799 10802 10806 10807 10805 10802 10800 10799 10797 10795 10797 10799 10799 10798 10797 10796 10793 10790 10787 10784 10783 10784 10784 10783 10782 10780 10779 10778 10777 10775 10773 10771 10768 10766 10764 10763 10761 10759 10756 10753 10750 10746 10742 10739 10736 10734 10732 10730 10728 10725 10721 10717 10714 10710 10707 10703 10699 10694 10691 10688 10684 10680 10676 10672 10668 10664 10659 10655 10649 10642 10635 10627 10619 10613 10609 10603 10597 10592 10588 10584 10582 10580 10579 10578 10576 10575
10787 10790 10793 10795 10796 10795 10793 10791 10790 10790 10789 10788 10789 10790 10789 10789 10788 10786 10784 10780 10777 10775 10774 10774 10773 10772 10771 10770 10769 10767 10766 10764 10761 10759 10758 10756 10754 10752 10750 10747 10744 10741 10737 10733 10730 10728 10726 10724 10721 10719 10716 10712 10708 10705 10702 10699 10696 10692 10688 10684 10680 10675 10672 10668 10664 10659 10655 10650 10646 10640 10633 10627 10619 10610 10604 10600 10594 10588 10583 10580 10577 10574 10573 10572 10571 10569 10568
10778 10780 10782 10784 10785 10785 10785 10784 10782 10781 10782 10781 10781 10781 10781 10780 10779 10778 10776 10773 10770 10768 10766 10765 10763 10761 10761 10761 10760 10758 10756 10754 10752 10750 10748 10746 10745 10743 10741 10738 10736 10732 10729 10724 10721 10719 10717 10715 10713 10710 10707 10703 10700 10696 10693 10690 10687 10684 10680 10676 10671 10667 10663 10659 10655 10651 10646 10641 10636 10630 10624 10618 10610 10602 10595 10591 10586 10580 10575 10572 10569 10567 10567 10566 10564 10563 10562
10768 10770 10771 10772 10774 10774 10775 10776 10775 10774 10773 10773 10773 10772 10771 10771 10769 10769 10767 10765 10762 10760 10758 10756 10754 10752 10751 10750 10749 10748 10746 10744 10743 10741 10739 10737 10736 10734 10732 10729 10727 10723 10719 10715 10712 10710 10708 10707 10704 10701 10698 10694 10691 10688 10685 10682 10679 10676 10671 10667 10663 10658 10654 10649 10645 10641 10637 10633 10627 10621 10615 10609 10602 10594 10588 10583 10578 10572 10568 10565 10562 10561 10561 10560 10559 10557 10556
10759 10760 10760 10760 10763 10765 10766 10767 10768 10766 10764 10764 10764 10763 10762 10761 10760 10758 10757 10756 10755 10753 10750 10748 10746 10744 10742 10740 10738 10737 10736 10734 10733 10731 10729 10727 10726 10724 10722 10720 10718 10714 10710 10706 10703 10701 10700 10698 10696 10693 10689 10686 10682 10680 10677 10674 10670 10666 10661 10658 10653 10648 10643 10639 10635 10631 10628 10624 10619 10611 10605 10599 10592 10586 10580 10575 10570 10565 10561 10558 10556 10554 10554 10555 10553 10552 10551
10747 10748 10747 10750 10754 10755 10756 10756 10757 10756 10755 10754 10754 10754 10753 10752 10750 10749 10748 10747 10746 10745 10742 10740 10739 10736 10733 10731 10728 10727 10726 10724 10723 10721 10719 10717 10716 10714 10713 10711 10708 10705 10701 10697 10694 10693 10692 10690 10688 10684 10680 10677 10674 10671 10668 10664 10660 10656 10652 10648 10643 10638 10634 10629 10625 10622 10619 10615 10610 10602 10595 10590 10584 10578 10573 10568 10563 10557 10554 10552 10550 10548 10548 10549 10548 10547 10547
10734 10734 10735 10741 10744 10745 10745 10745 10745 10745 10745 10745 10745 10744 10743 10742 10741 10739 10739 10738 10737 10735 10733 10732 10730 10728 10725 10723 10720 10717 10716 10714 10713 10711 10709 10707 10706 10705 10703 10701 10699 10696 10691 10688 10685 10684 10683 10682 10680 10675 10671 10668 10665 10662 10658 10655 10651 10647 10643 10638 10634 10629 10624 10620 10616 10612 10609 10606 10601 10594 10586 10580 10576 10571 10566 10560 10555 10551 10548 10546 10544 10543 10543 10544 10544 10543 10542
10721 10721 10724 10730 10733 10733 10734 10734 10734 10734 10735 10735 10734 10734 10733 10732 10731 10730 10729 10728 10727 10726 10724 10723 10721 10719 10717 10715 10712 10709 10707 10705 10703 10701 10699 10698 10696 10694 10693 10692 10690 10686 10682 10678 10676 10676 10675 10673 10670 10667 10663 10660 10656 10653 10649 10645 10641 10637 10633 10629 10624 10620 10615 10611 10607 10603 10599 10596 10592 10585 10578 10573 10568 10564 10559 10553 10548 10544 10542 10540 10539 10538 10538 10539 10539 10538 10538
10708 10709 10714 10719 10721 10721 10722 10723 10723 10724 10724 10723 10722 10722 10722 10722 10721 10720 10718 10717 10716 10716 10715 10713 10712 10710 10708 10706 10704 10701 10698 10696 10694 10692 10690 10688 10686 10685 10684 10683 10680 10677 10673 10670 10668 10667 10665 10663 10660 10657 10654 10651 10647 10644 10640 10636 10632 10628 10624 10619 10615 10611 10606 10602 10597 10593 10589 10586 10582 10576 10570 10566 10562 10557 10552 10547 10542 10538 10536 10535 10534 10533 10534 10535 10535 10534 10534
10698 10698 10702 10707 10710 10710 10710 10712 10713 10712 10712 10712 10711 10711 10711 10711 10710 10709 10708 10706 10706 10706 10705 10703 10702 10701 10698 10697 10695 10692 10690 10688 10685 10683 10680 10678 10677 10676 10675 10674 10672 10668 10665 10662 10659 10657 10655 10652 10650 10647 10645 10642 10638 10635 10631 10627 10623 10618 10614 10610 10606 10601 10597 10592 10588 10584 10580 10576 10571 10566 10561 10558 10555 10551 10546 10541 10537 10533 10532 10531 10529 10529 10530 10530 10531 10530 10530
10687 10686 10690 10696 10699 10699 10699 10701 10702 10700 10701 10702 10702 10701 10701 10701 10700 10699 10697 10695 10694 10695 10695 10693 10692 10690 10689 10687 10686 10683 10681 10679 10676 10673 10671 10670 10668 10667 10666 10664 10663 10660 10656 10653 10650 10647 10645 10642 10639 10637 10634 10632 10629 10626 10622 10618 10614 10610 10605 10601 10597 10591 10587 10583 10578 10575 10571 10567 10561 10557 10553 10549 10547 10545 10541 10536 10532 10529 10528 10527 10526 10525 10525 10526 10526 10526 10526
10676 10676 10680 10684 10688 10689 10690 10691 10690 10689 10690 10692 10692 10692 10691 10691 10690 10688 10686 10684 10683 10683 10682 10681 10681 10680 10679 10677 10675 10674 10671 10669 10667 10664 10662 10661 10659 10658 10656 10655 10653 10651 10648 10644 10641 10638 10635 10632 10629 10627 10624 10622 10619 10616 10612 10609 10605 10601 10597 10592 10588 10582 10578 10573 10569 10565 10562 10558 10553 10548 10544 10541 10539 10538 10535 10531 10527 10524 10523 10523 10522 10521 10520 10521 10521 10522 10522
10667 10667 10670 10674 10677 10678 10679 10679 10679 10679 10681 10682 10682 10680 10680 10680 10679 10677 10675 10673 10672 10671 10670 10669 10669 10669 10668 10666 10665 10663 10661 10659 10657 10655 10653 10652 10650 10648 10647 10645 10644 10642 10638 10635 10632 10629 10626 10623 10620 10617 10614 10611 10608 10605 10602 10598 10595 10591 10587 10583 10579 10574 10569 10564 10559 10555 10552 10549 10544 10540 10537 10534 10532 10530 10528 10525 10523 10520 10519 10519 10518 10516 10516 10516 10517 10517 10517
10656 10657 10660 10664 10667 10667 10667 10668 10669 10670 10671 10670 10668 10667 10667 10668 10667 10665 10663 10662 10661 10659 10658 10658 10657 10657 10656 10655 10654 10652 10650 10649 10647 10645 10644 10642 10640 10638 10636 10635 10634 10632 10628 10625 10622 10619 10616 10613 10610 10606 10603 10600 10596 10593 10590 10587 10584 10581 10576 10572 10568 10564 10559 10554 10550 10546 10542 10539 10536 10532 10528 10526 10525 10523 10521 10519 10518 10517 10515 10515 10514 10513 10511 10512 10512 10512 10512
10644 10646 10650 10654 10656 10655 10655 10657 10659 10659 10659 10657 10656 10655 10655 10655 10654 10652 10651 10650 10649 10647 10647 10646 10646 10646 10645 10644 10643 10642 10640 10639 10637 10635 10633 10631 10629 10627 10626 10625 10623 10621 10617 10614 10611 10608 10605 10602 10599 10596 10592 10589 10585 10582 10578 10576 10573 10569 10565 10561 10557 10553 10549 10545 10540 10536 10533 10530 10527 10523 10520 10518 10517 10517 10516 10514 10513 10513 10512 10511 10510 10509 10508 10507 10507 10507 10507
10632 10633 10637 10642 10645 10645 10644 10645 10647 10647 10645 10644 10644 10643 10643 10642 10641 10640 10639 10638 10637 10636 10635 10635 10636 10635 10634 10632 10631 10630 10629 10628 10626 10624 10623 10621 10619 10617 10615 10614 10612 10610 10606 10602 10599 10596 10593 10591 10588 10585 10582 10578 10574 10570 10567 10564 10561 10557 10553 10550 10546 10543 10539 10535 10531 10527 10524 10521 10519 10515 10512 10510 10509 10509 10510 10510 10508 10508 10507 10507 10506 10505 10504 10504 10503 10502 10502
10620 10623 10626 10630 10632 10634 10634 10634 10634 10634 10633 10632 10632 10632 10631 10631 10630 10629 10627 10626 10626 10625 10625 10625 10625 10625 10623 10622 10620 10619 10618 10617 10615 10613 10612 10610 10608 10606 10604 10602 10601 10598 10594 10590 10586 10583 10581 10579 10576 10574 10570 10566 10563 10559 10555 10552 10549 10546 10542 10538 10535 10532 10529 10526 10522 10519 10515 10512 10510 10507 10505 10502 10500 10500 10501 10502 10502 10502 10502 10502 10501 10501 10500 10499 10498 10498 10497
10610 10612 10615 10617 10619 10621 10622 10623 10622 10621 10621 10620 10620 10620 10620 10619 10618 10617 10616 10615 10614 10614 10614 10614 10613 10613 10612 10610 10608 10607 10606 10605 10604 10602 10602 10600 10597 10594 10592 10590 10588 10585 10581 10578 10574 10572 10569 10567 10564 10561 10558 10555 10551 10548 10544 10541 10538 10535 10531 10528 10525 10522 10519 10516 10513 10510 10506 10503 10501 10499 10497 10495 10493 10492 10492 10493 10494 10495 10495 10495 10495 10495 10494 10494 10493 10493 10492
10601 10602 10603 10604 10605 10608 10610 10610 10610 10610 10609 10608 10608 10608 10608 10607 10606 10606 10605 10604 10604 10603 10602 10602 10601 10600 10597 10595 10594 10595 10595 10594 10592 10591 10591 10588 10585 10582 10580 10577 10575 10572 10569 10565 10562 10560 10557 10555 10552 10549 10546 10543 10540 10536 10533 10530 10528 10525 10521 10518 10515 10512 10509 10506 10503 10500 10497 10493 10491 10489 10487 10486 10486 10485 10484 10484 10485 10486 10487 10487 10487 10487 10487 10487 10487 10487 10487
10593 10593 10592 10591 10592 10595 10596 10596 10596 10597 10597 10596 10596 10596 10596 10595 10595 10594 10593 10592 10593 10592 10591 10589 10587 10585 10582 10581 10582 10583 10582 10581 10580 10580 10578 10576 10572 10569 10567 10564 10561 10558 10555 10552 10550 10547 10545 10543 10540 10537 10534 10531 10528 10524 10521 10519 10517 10514 10511 10508 10505 10502 10499 10496 10494 10491 10488 10485 10483 10480 10479 10478 10478 10477 10476 10476 10477 10477 10478 10478 10478 10479 10480 10480 10481 10481 10481
10583 10584 10583 10580 10580 10581 10582 10582 10583 10583 10584 10584 10584 10584 10584 10583 10583 10583 10582 10581 10581 10580 10578 10575 10573 10570 10568 10568 10570 10570 10569 10568 10567 10566 10565 10562 10559 10556 10553 10550 10548 10545 10542 10539 10537 10535 10533 10531 10528 10525 10522 10519 10516 10513 10510 10508 10506 10503 10501 10498 10495 10491 10489 10487 10484 10481 10479 10477 10474 10472 10471 10470 10470 10469 10469 10469 10469 10469 10470 10470 10470 10471 10472 10473 10473 10473 10474
10571 10573 10574 10572 10570 10568 10567 10568 10569 10570 10571 10572 10573 10572 10571 10570 10570 10570 10570 10568 10567 10565 10563 10561 10560 10558 10556 10556 10556 10556 10555 10554 10553 10552 10550 10548 10545 10542 10539 10537 10535 10532 10530 10527 10525 10524 10522 10519 10517 10513 10510 10508 10505 10503 10500 10497 10495 10493 10490 10488 10485 10482 10479 10477 10474 10472 10470 10468 10466 10464 10463 10462 10462 10462 10461 10461 10462 10462 10462 10462 10463 10464 10464 10465 10465 10465 10465
10558 10561 10563 10562 10561 10559 10556 10556 10556 10556 10557 10559 10560 10560 10558 10557 10557 10556 10555 10553 10552 10551 10549 10548 10547 10545 10543 10542 10542 10541 10540 10540 10538 10536 10535 10533 10531 10529 10527 10525 10522 10520 10518 10516 10514 10512 10510 10508 10505 10502 10500 10497 10495 10493 10490 10487 10485 10483 10481 10478 10475 10473 10470 10468 10465 10463 10461 10459 10458 10456 10455 10455 10454 10454 10454 10454 10454 10455 10455 10455 10456 10457 10457 10457 10457 10457 10457
10546 10550 10551 10551 10549 10547 10546 10545 10545 10544 10545 10546 10547 10547 10545 10544 10543 10542 10541 10540 10538 10537 10536 10535 10533 10532 10530 10528 10527 10526 10525 10524 10522 10521 10520 10519 10518 10516 10515 10512 10510 10508 10506 10504 10502 10500 10498 10496 10494 10491 10489 10487 10485 10482 10480 10477 10476 10474 10472 10469 10467 10464 10461 10459 10457 10455 10453 10452 10450 10449 10448 10447 10447 10446 10446 10447 10447 10448 10448 10449 10449 10449 10449 10449 10449 10448 10448
10534 10536 10538 10538 10535 10533 10533 10533 10533 10534 10535 10536 10536 10534 10532 10531 10530 10530 10530 10527 10523 10523 10524 10523 10520 10517 10515 10514 10513 10512 10511 10510 10510 10509 10508 10507 10505 10504 10502 10500 10498 10496 10494 10492 10490 10488 10486 10484 10482 10481 10479 10477 10475 10472 10469 10467 10466 10464 10462 10460 10458 10456 10454 10451 10449 10447 10446 10445 10443 10442 10441 10440 10439 10439 10439 10439 10440 10441 10442 10442 10441 10441 10441 10440 10440 10440 10440
10521 10523 10524 10522 10520 10519 10520 10521 10522 10522 10523 10524 10523 10521 10520 10519 10517 10517 10516 10514 10510 10510 10511 10510 10505 10503 10502 10502 10501 10501 10501 10501 10500 10498 10496 10494 10493 10491 10489 10487 10486 10484 10482 10480 10478 10476 10475 10474 10472 10471 10469 10467 10465 10462 10460 10458 10457 10455 10454 10452 10450 10448 10446 10444 10442 10440 10438 10437 10436 10435 10434 10433 10432 10432 10432 10433 10434 10434 10434 10434 10433 10433 10433 10432 10432 10432 10432
10507 10508 10508 10507 10506 10506 10507 10508 10509 10510 10511 10511 10510 10509 10507 10505 10503 10502 10502 10502 10500 10500 10499 10495 10491 10491 10492 10492 10491 10491 10491 10489 10487 10485 10483 10481 10480 10478 10476 10475 10474 10472 10471 10469 10467 10466 10465 10464 10462 10461 10459 10457 10455 10453 10451 10449 10448 10447 10445 10444 10442 10440 10438 10437 10435 10433 10431 10430 10429 10428 10427 10426 10425 10425 10426 10426 10426 10426 10426 10426 10426 10425 10425 10425 10425 10424 10424
10492 10492 10492 10492 10493 10494 10496 10496 10497 10498 10498 10499 10498 10495 10492 10490 10490 10490 10491 10491 10491 10490 10488 10484 10481 10481 10481 10480 10479 10479 10478 10476 10474 10472 10471 10469 10468 10466 10465 10464 10462 10461 10460 10459 10457 10457 10456 10454 10452 10450 10448 10446 10445 10443 10441 10440 10438 10437 10436 10435 10433 10432 10430 10429 10428 10426 10425 10423 10422 10420 10419 10419 10418 10418 10418 10418 10418 10418 10418 10418 10418 10418 10417 10417 10417 10416 10416
10477 10478 10478 10479 10480 10482 10484 10485 10485 10486 10486 10486 10485 10483 10480 10479 10480 10480 10479 10479 10480 10480 10479 10477 10475 10473 10470 10469 10468 10467 10465 10464 10463 10461 10460 10459 10458 10456 10455 10453 10452 10451 10450 10449 10449 10448 10447 10444 10442 10440 10438 10437 10435 10434 10432 10431 10429 10428 10427 10426 10425 10424 10423 10421 10420 10419 10417 10416 10415 10413 10412 10412 10411 10411 10410 10410 10410 10410 10410 10410 10410 10409 10409 10409 10409 10408 10408
10465 10466 10466 10467 10469 10471 10472 10473 10474 10474 10474 10475 10474 10473 10472 10471 10470 10468 10466 10468 10471 10471 10470 10469 10467 10464 10462 10461 10460 10458 10457 10455 10454 10452 10451 10450 10449 10447 10446 10444 10443 10442 10442 10442 10441 10439 10437 10435 10434 10432 10430 10428 10427 10425 10424 10423 10422 10421 10419 10418 10417 10416 10415 10414 10413 10411 10410 10409 10408 10407 10406 10405 10404 10404 10403 10403 10402 10402 10402 10402 10401 10401 10401 10401 10401 10401 10401
10455 10455 10455 10457 10459 10460 10462 10463 10463 10463 10464 10464 10464 10464 10463 10463 10462 10459 10458 10460 10461 10461 10460 10459 10458 10456 10455 10454 10452 10451 10449 10447 10446 10445 10444 10442 10441 10439 10437 10436 10436 10435 10435 10434 10432 10430 10429 10427 10426 10424 10422 10420 10418 10417 10416 10415 10414 10413 10412 10411 10410 10408 10407 10406 10405 10404 10403 10402 10401 10400 10399 10398 10397 10396 10396 10395 10394 10394 10393 10393 10393 10393 10393 10393 10393 10393 10393
10445 10446 10447 10449 10451 10452 10453 10454 10454 10454 10455 10455 10455 10455 10455 10455 10455 10454 10452 10452 10452 10451 10450 10450 10449 10448 10447 10445 10444 10442 10441 10440 10438 10437 10436 10434 10433 10432 10430 10429 10429 10428 10427 10426 10424 10423 10421 10420 10419 10417 10415 10413 10411 10410 10409 10408 10407 10406 10405 10404 10403 10402 10401 10400 10399 10397 10396 10395 10394 10393 10392 10391 10390 10389 10389 10388 10387 10386 10385 10385 10385 10385 10385 10385 10385 10385 10384
10439 10440 10441 10442 10444 10445 10446 10447 10447 10447 10447 10447 10447 10447 10447 10447 10447 10447 10446 10445 10444 10443 10442 10442 10441 10440 10438 10437 10436 10435 10434 10433 10432 10430 10429 10428 10426 10425 10423 10423 10422 10421 10420 10418 10417 10415 10414 10413 10411 10410 10408 10407 10405 10404 10403 10402 10401 10400 10398 10397 10397 10396 10395 10394 10393 10392 10391 10389 10388 10387 10386 10385 10384 10383 10382 10381 10380 10380 10379 10378 10377 10377 10377 10377 10377 10377 10376
10433 10434 10435 10436 10437 10438 10439 10440 10440 10440 10440 10440 10440 10440 10440 10441 10441 10440 10439 10438 10437 10436 10435 10435 10434 10433 10432 10431 10430 10429 10427 10426 10425 10424 10422 10421 10420 10418 10417 10416 10415 10414 10413 10412 10410 10408 10407 10406 10404 10403 10402 10401 10399 10398 10398 10396 10395 10394 10393 10392 10391 10390 10389 10388 10387 10386 10385 10384 10383 10382 10380 10379 10378 10377 10376 10375 10374 10373 10372 10371 10371 10370 10370 10369 10369 10369 10368
10427 10428 10430 10431 10432 10433 10433 10433 10434 10434 10434 10434 10434 10435 10435 10435 10434 10434 10433 10432 10431 10430 10429 10428 10427 10427 10426 10425 10424 10423 10421 10420 10419 10418 10416 10415 10413 10412 10411 10409 10408 10407 10406 10405 10403 10402 10401 10400 10398 10397 10396 10395 10394 10393 10392 10391 10390 10389 10388 10387 10386 10385 10384 10383 10382 10381 10380 10379 10377 10376 10375 10374 10373 10371 10370 10369 10368 10367 10366 10365 10364 10363 10362 10362 10361 10361 10360
10422 10424 10425 10426 10427 10427 10428 10428 10429 10429 10430 10430 10430 10429 10429 10429 10428 10428 10427 10426 10425 10425 10424 10423 10422 10421 10420 10419 10418 10416 10415 10413 10412 10411 10409 10408 10407 10406 10404 10403 10402 10401 10399 10398 10397 10396 10395 10394 10393 10392 10390 10389 10389 10388 10387 10386 10385 10384 10383 10382 10381 10380 10378 10377 10376 10375 10374 10373 10371 10370 10369 10367 10366 10365 10363 10362 10361 10359 10358 10358 10357 10356 10355 10354 10353 10352 10352
10419 10420 10421 10421 10422 10423 10424 10424 10425 10425 10425 10425 10425 10424 10424 10423 10423 10422 10421 10421 10420 10419 10418 10417 10417 10415 10414 10413 10411 10410 10408 10407 10405 10404 10403 10402 10401 10400 10399 10397 10396 10395 10394 10393 10392 10391 10390 10388 10387 10386 10385 10384 10384 10383 10382 10381 10380 10379 10378 10377 10375 10374 10373 10372 10370 10369 10368 10366 10365 10363 10362 10360 10359 10357 10356 10354 10353 10351 10351 10350 10349 10348 10347 10346 10345 10344 10344
10416 10417 10418 10418 10419 10420 10420 10420 10421 10421 10421 10420 10420 10420 10419 10419 10418 10417 10416 10416 10415 10414 10413 10412 10411 10410 10408 10406 10405 10403 10402 10400 10399 10398 10397 10396 10396 10395 10393 10392 10391 10389 10388 10388 10387 10386 10385 10384 10383 10382 10381 10380 10379 10378 10377 10376 10374 10373 10372 10371 10370 10369 10368 10366 10364 10363 10361 10360 10358 10356 10355 10353 10352 10350 10349 10347 10345 10344 10343 10343 10342 10341 10340 10339 10338 10337 10336
10414 10415 10415 10416 10416 10416 10416 10416 10416 10416 10416 10416 10415 10415 10414 10414 10413 10412 10411 10410 10409 10408 10407 10406 10405 10403 10402 10400 10399 10398 10396 10395 10394 10393 10392 10391 10391 10390 10389 10387 10386 10385 10384 10383 10382 10382 10381 10379 10378 10377 10377 10376 10374 10373 10372 10370 10369 10368 10367 10366 10365 10364 10362 10360 10358 10357 10355 10353 10352 10350 10349 10347 10346 10344 10342 10341 10339 10338 10337 10336 10335 10334 10333 10332 10331 10330 10330